Warsaw, Polska

20:59 CEST dnia 29-maj-2017 (GMT +0200)
Okecie

Pogoda Historia dla EPWA - kwiecień, 2017

Change the Weather History Date:

Piątek, kwiecień 21, 2017

  Actual Average Record
Temperature  
Temperatura średnia 38 ° F -  
Temperatura maksymalna 50 ° F 63 ° F 68 ° F (2004)
Temperatura minimalna 27 ° F 43 ° F 24 ° F (1997)
Degree Days  
stopnio-dni grzewczych 26    
Moisture  
Punkt rosy 31 ° F    
Average Humidity 63    
Maximum Humidity 86    
Minimum Humidity 34    
Opady  
Opady 0.00 cali 0.07 cali - ()
Ciśnienie na poziomie morza  
Ciśnienie na poziomie morza 30.15 cali    
Wiatr  
Prędkość wiatru 8 mph ()    
Maksymalna prędkość wiatru 24 mph    
Max Gust Speed -    
Widzialność 7.6 mil    
Wydarzenia deszcz    
Averages and records for this station are not official NWS values.
T = Trace of Precipitation, MM = Missing Value Source: Averaged Metar Reports

Daily Weather History Graph

Daily Weather History Graph

Search for Another Location

Airport or City:

Trip Planner

Search our weather history database for the weather conditions in past years. The results will help you decide how hot, cold, wet, or windy it might be!

Date:

Astronomia

Apr. 21, 2017 Wschód Zachów
Aktualny czas 05:26 CEST 19:44 CEST
Zmierzch cywilny 04:49 CEST 20:21 CEST
Zmierzch żeglarski 04:02 CEST 21:08 CEST
świt/zmierzch astronomiczny 03:07 CEST 22:04 CEST
Księżyc 03:22 CEST (4/21) 13:20 CEST (4/21)
całkowite oświetlenie 15h 32m
Długość dnia
14h 18m
Zmniejszający się sierp Księżyca, 30% of the Moon is Illuminated
Kwiecień 21
Zmniejszający się sierp Księżyca
Kwiecień 26
Nowy
Maj 3
Pierwsza kwadra
Maj 10
Pełnia Księżyca
Maj 19
Ostatnia kwadra

Hourly Weather History & Observations

czas (CEST) Temp. czynnik chłodzący wiatru Punkt rosy Wilgotność Ciśnienie Widzialność Wind Dir Prędkość wiatru prędkość w porywie Precip Wydarzenia Warunki pogodowe
12:00 AM 34 ° F - 24 ° F 55% 30.40 cali 12 mi zachodni 4.5 mph - -  
12:00 AM 32.0 ° F 27.5 ° F 21.2 ° F 64% 30.36 cali - zachodni 4.6 mph - N/A   pogodnie
12:30 AM 32.0 ° F 26.4 ° F 24.8 ° F 75% 30.36 cali - zachodni 5.8 mph - N/A   pogodnie
1:00 AM 32.0 ° F 26.4 ° F 24.8 ° F 75% 30.36 cali - ZdPnZd 5.8 mph - N/A   pogodnie
1:30 AM 30.2 ° F 25.4 ° F 24.8 ° F 80% 30.33 cali - zachodni 4.6 mph - N/A   pogodnie
2:00 AM 31 ° F - 24 ° F 65% 30.37 cali 9 mi zachodni 4.5 mph - -  
2:00 AM 30.2 ° F 26.7 ° F 24.8 ° F 80% 30.33 cali - zachodni 3.5 mph - N/A   pogodnie
2:30 AM 28.4 ° F - 24.8 ° F 86% 30.33 cali - zmienny 2.3 mph - N/A   pogodnie
3:00 AM 28 ° F - 22 ° F 71% 30.35 cali 6 mi cisza cisza - -  
3:00 AM 28.4 ° F - 24.8 ° F 86% 30.33 cali - ZdPdZd 2.3 mph - N/A   pogodnie
3:30 AM 28.4 ° F - 24.8 ° F 86% 30.30 cali - zmienny 2.3 mph - N/A   pogodnie
4:00 AM 28 ° F - 22 ° F 71% 30.34 cali 6 mi ZdPdZd 2.2 mph - -  
4:00 AM 30.2 ° F - 23.0 ° F 75% 30.30 cali - zmienny 2.3 mph - N/A   pogodnie
4:30 AM 30.2 ° F - 23.0 ° F 75% 30.30 cali - cisza cisza - N/A   pogodnie
5:00 AM 29 ° F - 22 ° F 67% 30.32 cali 6 mi ZdPdZd 2.2 mph - -   pogodnie
5:00 AM 28.4 ° F - 23.0 ° F 80% 30.27 cali - zmienny 2.3 mph - N/A   pogodnie
5:30 AM 28.4 ° F - 23.0 ° F 80% 30.27 cali - zmienny 1.2 mph - N/A   pogodnie
6:00 AM 31 ° F - 23 ° F 61% 30.30 cali 6 mi ZdPdZd 4.5 mph - -   obłoki zanikające
6:00 AM 28.4 ° F - 23.0 ° F 80% 30.27 cali - zmienny 2.3 mph - N/A   pogodnie
6:30 AM 30.2 ° F 26.7 ° F 24.8 ° F 80% 30.27 cali - zachodni 3.5 mph - N/A   pogodnie
7:00 AM 34 ° F - 25 ° F 59% 30.29 cali 6 mi zachodni 6.7 mph - -   obłoki zanikające
7:00 AM 33.8 ° F 30.8 ° F 26.6 ° F 75% 30.24 cali - zachodni 3.5 mph - N/A   pogodnie
7:30 AM 35.6 ° F 29.2 ° F 26.6 ° F 70% 30.24 cali - zachodni 8.1 mph - N/A   pogodnie
8:00 AM 39 ° F - 28 ° F 52% 30.26 cali 12 mi zachodni 8.9 mph - -   przewaga chmur
8:00 AM 39.2 ° F 33.0 ° F 28.4 ° F 65% 30.24 cali - zachodni 9.2 mph - N/A   pogodnie
8:30 AM 41.0 ° F 34.3 ° F 28.4 ° F 61% 30.21 cali - zachodni 11.5 mph - N/A   pogodnie
9:00 AM 40 ° F - 27 ° F 49% 30.24 cali 12 mi zachodni 8.9 mph - -   niewielkie zachmurzenie
9:00 AM 41.0 ° F 33.9 ° F 26.6 ° F 57% 30.21 cali - zachodni 12.7 mph - N/A   pogodnie
9:30 AM 41.0 ° F 33.9 ° F 26.6 ° F 57% 30.21 cali 6.2 mi zachodni 12.7 mph - N/A   obłoki zanikające
10:00 AM 43 ° F - 27 ° F 40% 30.22 cali 12 mi zachodni 11.2 mph - -   przewaga chmur
10:00 AM 42.8 ° F 35.8 ° F 26.6 ° F 53% 30.18 cali 6.2 mi zachodni 13.8 mph - N/A   przewaga chmur
10:30 AM 44.6 ° F 38.4 ° F 26.6 ° F 49% 30.18 cali 6.2 mi zachodni 12.7 mph - N/A   przewaga chmur
11:00 AM 46 ° F - 27 ° F 34% 30.19 cali 12 mi zachodni 11.2 mph - -   przewaga chmur
11:00 AM 46.4 ° F 40.4 ° F 26.6 ° F 46% 30.15 cali 6.2 mi ZdPdZd 13.8 mph - N/A   przewaga chmur
11:30 AM 48.2 ° F - 26.6 ° F 43% 30.15 cali 6.2 mi zachodni 17.3 mph - N/A   niewielkie zachmurzenie
12:00 PM 48 ° F - 30 ° F 36% 30.16 cali 12 mi zachodni 13.4 mph - -   przewaga chmur
12:00 PM 48.2 ° F - 28.4 ° F 46% 30.15 cali 6.2 mi zachodni 19.6 mph - N/A   niewielkie zachmurzenie
12:30 PM 50.0 ° F - 32.0 ° F 50% 30.12 cali 6.2 mi ZdPdZd 18.4 mph - N/A   przewaga chmur
1:00 PM 50 ° F - 32 ° F 37% 30.14 cali 12 mi zachodni 15.7 mph - -   przewaga chmur
1:00 PM 50.0 ° F - 32.0 ° F 50% 30.12 cali 6.2 mi zachodni 18.4 mph - N/A   przewaga chmur
1:30 PM 50.0 ° F - 33.8 ° F 54% 30.09 cali 6.2 mi zachodni 19.6 mph - N/A   przewaga chmur
2:00 PM 49 ° F - 33 ° F 42% 30.11 cali 12 mi zachodni 17.9 mph - -   przewaga chmur
2:00 PM 50.0 ° F - 33.8 ° F 54% 30.09 cali 6.2 mi zachodni 21.9 mph - N/A   przewaga chmur
2:30 PM 50.0 ° F - 33.8 ° F 54% 30.06 cali 6.2 mi zachodni 19.6 mph - N/A   przewaga chmur
3:00 PM 48 ° F - 35 ° F 50% 30.09 cali 6 mi zachodni 20.1 mph - - deszcz lekki deszcz
3:00 PM 48.2 ° F - 35.6 ° F 62% 30.06 cali 6.2 mi zachodni 24.2 mph - N/A deszcz lekki deszcz
3:30 PM 50.0 ° F - 33.8 ° F 54% 30.06 cali 6.2 mi zachodni 18.4 mph - N/A   przewaga chmur
4:00 PM 50.0 ° F - 35.6 ° F 58% 30.04 cali 6.2 mi zachodni 21.9 mph - N/A   przewaga chmur
4:30 PM 50.0 ° F - 37.4 ° F 62% 30.04 cali 6.2 mi zachodni 18.4 mph - N/A   przewaga chmur
5:00 PM 50 ° F - 36 ° F 48% 30.05 cali 12 mi zachodni 13.4 mph - -   pochmurno
5:00 PM 50.0 ° F - 35.6 ° F 58% 30.04 cali 6.2 mi zachodni 18.4 mph - N/A   przewaga chmur
5:30 PM 50.0 ° F - 37.4 ° F 62% 30.01 cali 6.2 mi zachodni 18.4 mph - N/A   przewaga chmur
6:00 PM 50 ° F - 38 ° F 54% 30.02 cali 12 mi zachodni 15.7 mph - -   pochmurno
6:00 PM 50.0 ° F - 37.4 ° F 62% 30.01 cali 6.2 mi zachodni 18.4 mph - N/A   przewaga chmur
6:30 PM 50.0 ° F - 39.2 ° F 66% 30.01 cali 6.2 mi zachodni 16.1 mph - N/A   przewaga chmur
7:00 PM 50 ° F - 38 ° F 54% 30.01 cali 12 mi zachodni 13.4 mph - -   pochmurno
7:00 PM 50.0 ° F - 37.4 ° F 62% 29.98 cali 6.2 mi zachodni 16.1 mph - N/A   przewaga chmur
7:30 PM 50.0 ° F - 39.2 ° F 66% 29.98 cali 6.2 mi zachodni 16.1 mph - N/A   przewaga chmur
8:00 PM 49 ° F - 42 ° F 69% 30.00 cali 9 mi zachodni 15.7 mph - -   niewielkie zachmurzenie
8:00 PM 50.0 ° F - 41.0 ° F 71% 29.98 cali 6.2 mi zachodni 16.1 mph - N/A   przewaga chmur
8:30 PM 48.2 ° F - 42.8 ° F 82% 29.98 cali 6.2 mi zachodni 15.0 mph - N/A deszcz lekki deszcz
9:00 PM 48 ° F - 42 ° F 71% 29.98 cali 6 mi zachodni 8.9 mph - - deszcz lekki deszcz
9:00 PM 48.2 ° F - 42.8 ° F 82% 29.95 cali 6.2 mi zachodni 12.7 mph - N/A   niewielkie zachmurzenie
9:30 PM 48.2 ° F - 41.0 ° F 76% 29.95 cali - ZdPdZd 12.7 mph - N/A   pogodnie
10:00 PM 48.2 ° F - 41.0 ° F 76% 29.95 cali 6.2 mi ZdPdZd 12.7 mph - N/A   obłoki zanikające
10:30 PM 48.2 ° F - 41.0 ° F 76% 29.92 cali 6.2 mi ZdPdZd 11.5 mph - N/A   obłoki zanikające
11:00 PM 50 ° F - 40 ° F 60% 29.92 cali 6 mi zachodni 11.2 mph - -   niewielkie zachmurzenie
11:00 PM 50.0 ° F - 41.0 ° F 71% 29.89 cali 6.2 mi ZdPdZd 12.7 mph - N/A   niewielkie zachmurzenie
11:30 PM 50.0 ° F - 39.2 ° F 66% 29.89 cali 6.2 mi ZdPdZd 12.7 mph - N/A   przewaga chmur